www.pogodaiklimat.ru

Погода и климат >> Архив погоды >> Беларусь >> Ивацевичи


ПОГОДА в Ивацевичах

  • Прогноз погоды в Ивацевичах
  • Монитор погоды в Ивацевичах
  • Климат города

АРХИВ ПОГОДЫ в Ивацевичах

Время (UTC), дата Ветер
(напр.,м/с)
 
Видим.   Явления Облачность Т
(С)
Тd
(С)
f
(%)
Тe
(С)
Тes
(С)
Комфортность P
(гПа)
Po
(гПа)
Тmin
(С)
Tmax
(С)
R
(мм)
R24
(мм)
S
(см)
18 12.09 З 3 10 км 10 баллов +18.1 +15.7 86 +18 +18 1003.0 984.9 +24.3
06 13.09 З 2 10 км 10 баллов +14.0 +13.0 94 +13 +13 1007.0 988.5 +13.7 2
09 13.09 З 3 10 км 10 баллов +16.0 +11.6 75 +16 +16 1008.0 989.6
12 13.09 ЮЗ 5
{11}
10 км 6 баллов +18.6 +9.4 55 +19 +20 1007.0 988.8
15 13.09 ЮЗ 5
{10}
10 км 3 балла +18.1 +9.2 56 +18 +18 1007.0 988.8
18 13.09 Ю 3
{10}
10 км 3 балла +14.8 +10.2 74 +14 +14 1006.0 987.6 +19.3
06 14.09 ЮЗ 3
{11}
10 км 10 баллов +15.2 +10.2 72 +15 +15 1003.0 984.7 +13.3
09 14.09 Ю 3 10 км 10 баллов +18.3 +12.3 68 +19 +19 1003.0 984.9
12 14.09 ЮЗ 2
{11}
10 км 10 баллов +18.4 +13.3 72 +19 +19 1003.0 984.9
15 14.09 Ю 1 10 км 10 баллов +19.7 +14.7 73 +23 +23 комфорт 1002.0 984.0
18 14.09 ЮВ 1 10 км ливневой дождь 10 баллов +16.4 +15.4 94 +17 +17 1001.0 982.8 +20.8 0.4
06 15.09 ЮЗ 4
{11}
10 км 10 баллов +11.3 +9.2 87 +9 +9 1007.0 988.3 +10.6 2
09 15.09 З 5
{11}
10 км 10 баллов +13.2 +8.3 72 +11 +11 1009.0 990.4
12 15.09 З 6
{13}
10 км 10 баллов +14.2 +7.0 62 +12 +12 1011.0 992.4
15 15.09 ЮЗ 5
{12}
10 км 3 балла +14.6 +6.9 60 +13 +14 1013.0 994.4
18 15.09 ЮЗ 3
{10}
10 км 3 балла +12.6 +7.5 71 +11 +11 1015.0 996.3 +15.2
06 16.09 Ю 1 10 км 3 балла +10.3 +8.6 89 +10 +11 1018.0 999.1 +8.1
09 16.09 Ю 2 10 км 10 баллов +16.7 +9.1 61 +17 +17 1018.0 999.5
12 16.09 ЮВ 3 10 км ливневой дождь 10 баллов +14.4 +10.6 78 +13 +13 1018.0 999.3
15 16.09 В 2 10 км дождь 10 баллов +12.7 +11.3 91 +12 +12 1018.0 999.2
18 16.09 В 2 10 км 10 баллов +11.9 +9.6 86 +11 +11 1018.0 999.2 +16.8 2
06 17.09 В 1 10 км 10 баллов +10.9 +10.0 94 +10 +10 1014.0 995.2 +9.4
09 17.09 ЮВ 1 10 км 10 баллов +12.8 +11.0 89 +13 +13 1013.0 994.3
12 17.09 В 1 8000 м дождь 10 баллов +13.7 +13.1 96 +14 +14 1012.0 993.4
15 17.09 СЗ 1 8000 м дождь 10 баллов +14.3 +13.8 97 +15 +15 1011.0 992.5
18 17.09 СВ 2 2800 м дымка 10 баллов +14.3 +13.8 97 +14 +14 1008.0 989.5 +14.4 8
06 18.09 Ю 6
{15}
10 км 10 баллов +11.8 +9.4 85 +9 +9 1001.0 982.5 +11.0 5
09 18.09 ЮЗ 7
{17}
10 км 10 баллов +12.4 +9.2 81 +10 +10 1003.0 984.5
12 18.09 ЮЗ 8
{17}
10 км 10 баллов +14.0 +8.2 68 +12 +12 1004.0 985.6
15 18.09 ЮЗ 8
{18}
10 км 10 баллов +13.0 +9.1 77 +10 +10 1007.0 988.5
18 18.09 З 4
{16}
10 км 6 баллов +11.4 +7.1 75 +9 +9 1011.0 992.3 +14.2 0.1
06 19.09 ЮЗ 1 5000 м дымка 10 баллов +8.6 +7.8 95 +8 +8 1017.0 998.0 +7.3
09 19.09 З 2 10 км 6 баллов +14.8 +8.7 67 +15 +17 1018.0 999.4
12 19.09 ЮЗ 3 10 км 10 баллов +17.3 +6.5 49 +17 +17 1018.0 999.5
15 19.09 ЮЗ 1 10 км 10 баллов +16.6 +6.4 51 +18 +18 1018.0 999.5

 

Местоположение метеостанции Ивацевичи (Брестская область, Беларусь): широта 52.70 долгота 25.36 высота над уровнем моря 156 м.

В архиве по умолчанию представлена погода в Ивацевичах за последнюю неделю. Архивные данные за месяц целиком и за предыдущие месяцы, начиная с января 2011 года, Вы можете получить, выбрав интересующий диапазон дат из раскрывающегося списка и нажав кнопку "Ввод!".

Внимание! Время в таблицах - всемирное. Для получения местного времени необходимо прибавить поправку, которая в Ивацевичах равна 3 ч.

Смотрите также архив погоды в соседних городах и на ближайших метеорологических станциях:

Погода в Пружанах (Брестская область, Беларусь) (61 км)
Погода в Ганцевичах (Брестская область, Беларусь) (73 км)
Погода в Пинске (Брестская область, Беларусь) (80 км)
Погода в Волковыске (Гродненская область, Беларусь) (80 км)
Погода в Полесской (Брестская область, Беларусь) (101 км)
Погода в Новогрудке (Гродненская область, Беларусь) (105 км)
Погода в Любешове (Волынская область, Украина) (115 км)
Погода в Столбцах (Минская область, Беларусь) (126 км)
Погода в Бресте (Брестская область, Беларусь) (130 км)
Погода в Гродно (Гродненская область, Беларусь) (133 км)

Пояснения к столбцам:

Ветер - указаны скорость ветра в м/с - средняя за 10 мин, порывы в срок и между сроками (в фигурных скобках) и направление, откуда дует ветер: С - северный, СВ - северо-восточный, В - восточный, ЮВ - юго-восточный, Ю - южный, ЮЗ - юго-западный, З - западный, СЗ - северо-западный.
Видимость - горизонтальная дальность видимости в метрах или километрах. При видимости от 1 до 10 км при отсутствии осадков обычно наблюдается дымка, при ухудшении видимости до 1 км и менее - туман. В сухую погоду видимость может ухудшаться дымом, пылью или мглою.
Явления - указаны атмосферные явления, наблюдавшиеся в срок или в последний час перед сроком; фигурными скобками обозначены явления, наблюдавшиеся между сроками (за 1-3 часа до срока); квадратными скобками обозначены град или гололедные отложения с указанием их диаметра в мм.
Облачность - указаны через наклонную черту общая и нижняя облачность в баллах и высота нижней границы облаков в метрах; квадратными скобками обозначены формы облаков: Ci - перистые, Cs - перисто-слоистые, Cc - перисто-кучевые, Ac - высококучевые, As - высокослоистые, Sc - слоисто-кучевые, Ns - слоисто-дождевые, Cu - кучевые, Cb - кучево-дождевые. Подробнее классификацию облаков см. в Атласе облаков (PDF).
T - Температура воздуха - температура, измеренная на высоте 2 м над землей.
Td - Температура точки росы - температура, при понижении до которой содержащийся в воздухе водяной пар достигнет насыщения.
f - Относительная влажность воздуха - влажноcть воздуха, измеренная на высоте 2 м над землей.
Te - Эффективная температура - температура, которую ощущает одетый по сезону человек в тени. Характеристика душности погоды. При расчете учитывается влияние влажности воздуха и скорости ветра на теплоощущения человека.
Tes - Эффективная температура на солнце - температура, которую ощущает человек, с поправкой на солнечный нагрев. Характеристика знойности погоды. Зависит от высоты солнца над горизонтом, облачности и скорости ветра. Ночью, в пасмурную погоду, а также при ветре 12 м/с и более поправка равна нулю.
P - Атмосферное давление - приведенное к уровню моря атмосферное давление.
Po - Атмосферное давление - измеренное на уровне метеостанции атмосферное давление.
Tmin - Минимальная температура - минимум температуры воздуха на высоте 2 м над землей.
Tmax - Максимальная температура - максимум температуры воздуха на высоте 2 м над землей.
R - Количество осадков - Количество выпавших осадков за период времени, мм. При наведении курсора мыши на число - период времени, за который выпало указанное количество осадков.
R24 - Количество осадков - Количество выпавших осадков за 24 часа, мм.
S - Снежный покров - Высота снежного покрова, см. При наведении курсора мыши на число - состояние снежного покрова и степень покрытия местности в баллах.